Creek Data

    Home     View Charts     View Raw Data     Messages

ID Distance Battery Voltage Battery Current Internal Temp Internal Humidity External Temp Solar Input rssi snr Time Stamp Record
68606 15.0 3.72 0 85 49 74 5.1 -74 7 03/11/2026 04:00 PM 51478
68605 15.0 3.72 0 85 49 74 5.1 -75 8 03/11/2026 03:45 PM 51477
68604 15.0 3.72 5 85 48 73 5.1 -75 8 03/11/2026 03:30 PM 51476
68603 15.1 4.05 5 83 47 72 5.1 -75 8 03/11/2026 03:00 PM 51474
68602 15.0 4.06 0 83 47 72 5.1 -75 7 03/11/2026 02:45 PM 51473
68601 15.0 3.72 5 82 46 72 5.1 -75 8 03/11/2026 02:30 PM 51472
68600 15.1 3.72 0 80 47 71 5.1 -75 8 03/11/2026 02:15 PM 51471
68599 15.0 3.72 0 78 47 70 5.1 -75 8 03/11/2026 01:45 PM 51469
68598 15.1 3.73 6 77 47 70 5.1 -74 7 03/11/2026 01:30 PM 51468
68597 15.0 3.82 6 76 47 69 5.1 -74 8 03/11/2026 01:15 PM 51467
68596 15.0 3.83 0 75 47 68 5.1 -75 8 03/11/2026 01:00 PM 51466
68595 15.0 3.72 0 74 47 67 5.1 -75 8 03/11/2026 12:45 PM 51465
68594 15.1 3.72 0 72 47 66 5.1 -74 8 03/11/2026 12:30 PM 51464
68593 15.0 3.96 6 71 47 65 5.1 -75 8 03/11/2026 12:15 PM 51463
68592 15.0 4.05 0 70 47 65 5.1 -75 8 03/11/2026 12:00 PM 51462
68591 15.1 3.73 6 68 47 64 5.1 -75 7 03/11/2026 11:45 AM 51461
68590 15.1 3.77 6 67 47 63 5.1 -73 8 03/11/2026 11:30 AM 51460
68589 15.1 3.72 0 65 47 63 5.1 -74 7 03/11/2026 11:15 AM 51459
68588 15.1 3.72 0 64 47 62 5.1 -74 7 03/11/2026 11:00 AM 51458
68587 15.1 3.72 5 63 47 61 5.1 -74 8 03/11/2026 10:45 AM 51457
68586 15.1 3.72 6 61 47 61 5.1 -74 8 03/11/2026 10:30 AM 51456
68585 15.1 3.71 0 59 47 59 5.1 -74 8 03/11/2026 10:15 AM 51455
68584 15.0 3.92 6 58 47 58 5.1 -73 8 03/11/2026 10:00 AM 51454
68583 15.0 3.94 0 56 46 57 5.1 -73 7 03/11/2026 09:45 AM 51453
68582 15.0 3.71 6 54 47 56 5.1 -74 8 03/11/2026 09:30 AM 51452